www.pogodaiklimat.ru

Погода и климат >> Архив погоды >> Монголия >> Тонхил


ПОГОДА в Тонхиле

  • Прогноз погоды в Тонхиле
  • Монитор погоды в Тонхиле

АРХИВ ПОГОДЫ в Тонхиле

Время (UTC), дата Ветер
(напр.,м/с)
 
Видим.   Явления Облачность Т
(С)
Тd
(С)
f
(%)
Тe
(С)
Тes
(С)
Комфортность P
(гПа)
Po
(гПа)
Тmin
(С)
Tmax
(С)
R
(мм)
R24
(мм)
S
(см)
09 17.06 ЮЗ 8
{12}
50 км 4/4 1000 м
[Cu med, cong]
+19.7 -3.9 20 +19 +20 1002.5 774.4
12 17.06 З 8
{13}
50 км 4/4 1000 м
[Sc diur, vesp]
+18.1 -5.9 19 +17 +17 1003.9 774.4 +20.9
15 17.06 С 2
{10}
н/о 3/3 1000 м
[Sc]
+13.0 -2.1 35 +13 +13 1010.1 775.6
18 17.06 С 1 н/о ясно +10.2 -1.8 43 +10 +10 1013.9 776.5
21 17.06 СЗ 3 н/о ясно +9.1 -0.8 50 +7 +7 1015.0 776.5
00 18.06 штиль 0 50 км 3/0
[Cs]
+10.3 -2.7 40 +10 +13 1009.7 777.1 +7.2
03 18.06 штиль 0 50 км 5/0
[Cs]
+15.0 +1.5 40 +15 +31 опасность
простуды
1005.2 777.1
06 18.06 штиль 0 50 км 8/4 1000 м
[Cu hum Cs]
+20.1 -1.1 24 +20 +33 опасность
простуды
1004.8 776.5
09 18.06 ЮВ 6 50 км 9/6 1000 м
[Cu med, cong Cs]
+22.8 -2.0 19 +22 +23 комфорт 1001.2 775.5
12 18.06 ЮЗ 4
{10}
50 км 8/6 1000 м
[Sc diur, vesp Ac trans]
+21.8 -6.9 14 +20 +21 1001.9 775.4 +23.3
15 18.06 З 2 н/о 6/0
[Cs]
+17.7 -6.2 19 +18 +18 1006.3 776.0
18 18.06 С 6 н/о 4/0
[Cs]
+12.7 -3.6 32 +11 +11 1011.2 776.2
21 18.06 С 6 н/о 4/0
[Cs]
+10.4 -6.4 30 +8 +8 1013.3 776.2
00 19.06 С 4 50 км 4/0
[Cs]
+15.3 -7.5 20 +15 +16 1008.7 776.2 +9.7
03 19.06 ЮВ 1 50 км 5/0
[Cs]
+21.1 -4.1 18 +20 +34 опасность
простуды
1004.5 776.9
06 19.06 ЮВ 6 50 км 8/3 1000 м
[Cu hum Cs]
+23.8 -7.3 12 +22 +26 комфорт 1001.0 776.0
09 19.06 З 6 50 км 6/3 1000 м
[Cu med, cong Cs]
+22.5 -4.6 16 +21 +24 комфорт 1002.1 776.0
12 19.06 З 5
{10}
50 км 6/0
[Ac trans Cs]
+22.5 -6.3 14 +21 +21 комфорт 1002.1 776.0 +25.0
15 19.06 С 1 н/о ясно +17.9 -4.1 22 +19 +19 1006.8 776.5
18 19.06 С 6 н/о ясно +13.4 -2.5 33 +12 +12 1011.3 776.8
21 19.06 С 7 н/о ясно +11.6 -2.2 38 +9 +9 1013.8 777.4
00 20.06 С 5 50 км 6/0
[Cs]
+14.8 -2.6 30 +14 +15 1011.7 778.1 +10.3
03 20.06 СЗ 5 50 км 4/1 1000 м
[Cu hum Cs]
+20.2 -4.4 19 +20 +26 1002.1 777.9
06 20.06 штиль 0 50 км 8/5 1000 м
[Cu med, cong Cs]
+24.8 -8.6 10 +22 +33 комфорт 998.0 777.7
09 20.06 З 2 50 км 8/5 1000 м
[Cu med, cong Cs]
+25.0 -10.7 9 +22 +27 комфорт 996.8 776.9
12 20.06 Ю 6 50 км 8/6 1000 м
[Sc diur, vesp Cs]
+23.2 -1.0 20 +22 +22 комфорт 1002.4 776.7 +25.8
15 20.06 С 10 н/о 5/3 1000 м
[Sc Ac cast]
+19.0 +3.2 35 +18 +18 1008.0 778.2
18 20.06 С 9
{14}
н/о 8/3 1000 м
[Cu Sc Ac lent]
+16.0 +4.1 45 +14 +14 1011.5 778.8
21 20.06 СЗ 2
{10}
н/о 6/3 1000 м
[Cu Sc Ac lent]
+14.8 +3.9 48 +15 +15 1012.6 778.8
00 21.06 С 3 50 км 6/1 1000 м
[Cu hum Cs]
+16.0 +3.8 44 +16 +17 1012.0 779.2 +13.2
03 21.06 ЮВ 2 50 км 8/4 1000 м
[Cu med, cong Cs]
+20.9 +3.1 31 +22 +29 комфорт 1007.1 778.8
06 21.06 З 3 50 км 9/9 1000 м
[Cu med, cong]
+19.6 +4.5 37 +20 +22 1008.0 778.6
09 21.06 штиль 0
{10}
50 км 9/9 1000 м
[Cu med, cong]
+21.7 +3.4 30 +22 +23 комфорт 1005.1 777.8
12 21.06 В 5 50 км {дождь} 9/9 1000 м
[Sc diur, vesp]
+18.0 +7.1 49 +18 +18 1008.4 777.8 +22.4 0.3
15 21.06 В 1 н/о 6/3 1000 м
[Cu Sc Cs]
+14.6 +6.9 60 +15 +15 1012.3 778.4
18 21.06 штиль 0 н/о 8/5 1000 м
[Cu Sc Cs]
+13.5 +7.1 65 +13 +13 1012.5 777.8
21 21.06 Ю 3 н/о 9/5 1000 м
[Cu Sc Ac As Cs]
+14.1 +3.3 48 +13 +13 1011.2 777.2
00 22.06 З 5 50 км 9/6 1000 м
[Cu Sc Ac trans]
+15.8 +3.3 43 +15 +15 1009.5 777.1 +12.4
03 22.06 З 11-11
{11}
50 км 9/5 1000 м
[Sc Ac As]
+19.2 +0.8 29 +18 +18 1007.0 777.6
06 22.06 З 6 50 км 6/6 1000 м
[Cu med, cong]
+23.6 -5.4 14 +22 +25 комфорт 1002.0 776.7
09 22.06 З 7
{10}
50 км 8/8 1000 м
[Cu med, cong]
+24.0 -1.8 18 +22 +23 комфорт 1000.4 775.7
12 22.06 З 5
{10}
50 км 9/6 1000 м
[Sc diur, vesp Cs]
+22.9 -1.9 19 +22 +22 комфорт 1000.8 775.3 +24.9
15 22.06 С 2 н/о 8/3 1000 м
[Cu Sc As trans]
+18.6 -1.8 25 +19 +19 1005.2 775.8
18 22.06 С 7 н/о 9/3 1000 м
[Cu Sc As op]
+14.8 +0.6 38 +13 +13 1009.2 776.2
21 22.06 СЗ 3 н/о 8/0
[As op]
+12.8 +0.9 44 +12 +12 1010.8 776.0
00 23.06 С 3 50 км 9/5 1000 м
[Cu Sc Ac lent]
+16.4 +0.5 34 +16 +17 1007.5 776.0 +12.0
03 23.06 ЮЗ 7 50 км 9/6 1000 м
[Cu Sc As op Cs]
+20.6 -1.8 22 +20 +21 1004.0 776.2
06 23.06 ЮЗ 8
{12}
50 км 9/6 1000 м
[Cu med, cong Cs]
+22.5 -2.3 19 +21 +23 комфорт 1001.4 775.5
09 23.06 ЮЗ 7 50 км 9/5 1000 м
[Cu Sc Ac trans]
+23.8 +4.4 28 +23 +24 комфорт 1000.3 775.5
12 23.06 З 6
{10}
50 км 8/4 1000 м
[Sc Ac As]
+21.8 -2.8 19 +21 +21 комфорт 1000.5 774.3 +24.6
15 23.06 З 6 н/о 9/5 1000 м
[Sc Ac As]
+18.0 +1.9 34 +17 +17 1004.7 775.0
18 23.06 ЮЗ 3 н/о 9/8 1000 м
[Sc Ac As]
+16.7 +1.6 36 +17 +17 1005.9 775.0
21 23.06 Ю 2 н/о 9/8 1000 м
[Sc Ac As]
+14.5 +4.5 51 +14 +14 1008.2 775.2
00 24.06 ЮЗ 3 50 км 10/5 1000 м
[Sc As op]
+14.3 +4.3 51 +14 +14 1008.6 775.4 +13.8
03 24.06 З 7
{10}
50 км в посл. час дождь 10/10 600 м
[Sc]
+12.2 +8.3 77 +9 +9 1010.8 775.6
06 24.06 З 7
{10}
50 км {дождь} 9/6 1000 м
[Sc Ac lent]
+15.8 +2.6 41 +14 +15 1007.5 775.6

 

Местоположение метеостанции Тонхил (Монголия): широта 46.32 долгота 93.90 высота над уровнем моря 2095 м.

В архиве по умолчанию представлена погода в Тонхиле за последнюю неделю. Архивные данные за месяц целиком и за предыдущие месяцы, начиная с января 2011 года, Вы можете получить, выбрав интересующий диапазон дат из раскрывающегося списка и нажав кнопку "Ввод!".


*Определитесь, кто Вы:
робот инопланетянин человек

Внимание! Время в таблицах - всемирное. Для получения местного времени необходимо прибавить поправку, которая равна 8 ч.

Смотрите также архив погоды в соседних городах и на ближайших метеорологических станциях:

Погода в Алтае (Монголия) (181 км)
Погода в Байтаге (Монголия) (188 км)
Погода в Жаргаланте (Монголия) (226 км)
Погода в Ургамале (Монголия) (247 км)
Погода в Ховде (Монголия) (258 км)
Погода в Улиастае (Монголия) (274 км)
Погода в Бейта Шан (Синьцзян-Уйгурский автономный район, Китай) (282 км)
Погода в Завхане (Монголия) (284 км)
Погода в Цэцэн-Ууле (Монголия) (315 км)
Погода в Наомаоху (Синьцзян-Уйгурский автономный район, Китай) (318 км)

Пояснения к столбцам:

Ветер - указаны скорость ветра в м/с - средняя за 10 мин, порывы в срок и между сроками (в фигурных скобках) и направление, откуда дует ветер: С - северный, СВ - северо-восточный, В - восточный, ЮВ - юго-восточный, Ю - южный, ЮЗ - юго-западный, З - западный, СЗ - северо-западный.
Видимость - горизонтальная дальность видимости в метрах или километрах. При видимости от 1 до 10 км при отсутствии осадков обычно наблюдается дымка, при ухудшении видимости до 1 км и менее - туман. В сухую погоду видимость может ухудшаться дымом, пылью или мглою.
Явления - указаны атмосферные явления, наблюдавшиеся в срок или в последний час перед сроком; фигурными скобками обозначены явления, наблюдавшиеся между сроками (за 1-3 часа до срока); квадратными скобками обозначены град или гололедные отложения с указанием их диаметра в мм.
Облачность - указаны через наклонную черту общая и нижняя облачность в баллах и высота нижней границы облаков в метрах; квадратными скобками обозначены формы облаков: Ci - перистые, Cs - перисто-слоистые, Cc - перисто-кучевые, Ac - высококучевые, As - высокослоистые, Sc - слоисто-кучевые, Ns - слоисто-дождевые, Cu - кучевые, Cb - кучево-дождевые. Подробнее классификацию облаков см. в Атласе облаков (PDF).
T - Температура воздуха - температура, измеренная на высоте 2 м над землей.
Td - Температура точки росы - температура, при понижении до которой содержащийся в воздухе водяной пар достигнет насыщения.
f - Относительная влажность воздуха - влажноcть воздуха, измеренная на высоте 2 м над землей.
Te - Эффективная температура - температура, которую ощущает одетый по сезону человек в тени. Характеристика душности погоды. При расчете учитывается влияние влажности воздуха и скорости ветра на теплоощущения человека.
Tes - Эффективная температура на солнце - температура, которую ощущает человек, с поправкой на солнечный нагрев. Характеристика знойности погоды. Зависит от высоты солнца над горизонтом, облачности и скорости ветра. Ночью, в пасмурную погоду, а также при ветре 12 м/с и более поправка равна нулю.
P - Атмосферное давление - приведенное к уровню моря атмосферное давление.
Po - Атмосферное давление - измеренное на уровне метеостанции атмосферное давление.
Tmin - Минимальная температура - минимум температуры воздуха на высоте 2 м над землей.
Tmax - Максимальная температура - максимум температуры воздуха на высоте 2 м над землей.
R - Количество осадков - Количество выпавших осадков за период времени, мм. При наведении курсора мыши на число - период времени, за который выпало указанное количество осадков.
R24 - Количество осадков - Количество выпавших осадков за 24 часа, мм.
S - Снежный покров - Высота снежного покрова, см. При наведении курсора мыши на число - состояние снежного покрова и степень покрытия местности в баллах.